, AK

(GMT )
Savoonga

Weather History for PASA - April, 2014

Change the Weather History Date:

Friday, April 18, 2014

  Actual Average Record
Temperature  
Mean Temperature 22 °F -  
Max Temperature 24 °F 22 °F 35 °F (2008)
Min Temperature 21 °F 13 °F -2 °F (2002)
Degree Days  
Heating Degree Days 42    
Moisture  
Dew Point 20 °F    
Average Humidity 87    
Maximum Humidity 93    
Minimum Humidity 80    
Precipitation  
Precipitation 0.00 in - - ()
Sea Level Pressure  
Sea Level Pressure 29.58 in    
Wind  
Wind Speed 10 mph (ENE)    
Max Wind Speed 13 mph    
Max Gust Speed -    
Visibility 10 miles    
Events      
Averages and records for this station are not official NWS values.
T = Trace of Precipitation, MM = Missing Value Source: NWS Daily Summary

Daily Weather History Graph

Daily Weather History Graph

Search for Another Location

Airport or City:

Trip Planner

Search our weather history database for the weather conditions in past years. The results will help you decide how hot, cold, wet, or windy it might be!

Date:

Astronomy

Apr. 18, 2014 Rise Set
Actual Time 7:40 AM AKDT 11:03 PM AKDT
Civil Twilight 6:44 AM AKDT 12:00 AM AKDT
Nautical Twilight 5:20 AM AKDT 1:27 AM AKDT
Astronomical Twilight 3:53 AM AKDT Sun does not rise
Moon 2:51 AM AKDT (4/18) 9:22 AM AKDT (4/18)
Length of Visible Light 17h 15m
Length of Day
15h 23m
Waning Gibbous, 86% of the Moon is Illuminated
Apr 18
Waning Gibbous
Apr 21
Last Quarter
Apr 28
New
May 6
First Quarter
May 14
Full

Hourly Weather History & Observations

Time (AKDT) Temp. Windchill Dew Point Humidity Pressure Visibility Wind Dir Wind Speed Gust Speed Precip Events Conditions
12:16 AM 21.2 °F 11.7 °F 19.4 °F 93% 29.57 in 10.0 mi NE 8.1 mph - N/A   Overcast
12:36 AM 23.0 °F 13.1 °F 19.4 °F 86% 29.56 in 10.0 mi ENE 9.2 mph - N/A   Overcast
12:56 AM 23.0 °F 12.4 °F 19.4 °F 86% 29.56 in 10.0 mi ENE 10.4 mph - N/A   Overcast
1:16 AM 23.0 °F 11.1 °F 19.4 °F 86% 29.56 in 10.0 mi ENE 12.7 mph - N/A   Overcast
1:36 AM 23.0 °F 12.4 °F 19.4 °F 86% 29.56 in 10.0 mi ENE 10.4 mph - N/A   Overcast
1:56 AM 23.0 °F 12.4 °F 19.4 °F 86% 29.56 in 10.0 mi ENE 10.4 mph - N/A   Overcast
2:16 AM 23.0 °F 12.4 °F 19.4 °F 86% 29.56 in 10.0 mi ENE 10.4 mph - N/A   Overcast
2:36 AM 23.0 °F 11.7 °F 19.4 °F 86% 29.55 in 10.0 mi ENE 11.5 mph - N/A   Overcast
2:56 AM 23.0 °F 12.4 °F 19.4 °F 86% 29.55 in 10.0 mi ENE 10.4 mph - N/A   Overcast
3:16 AM 23.0 °F 13.1 °F 19.4 °F 86% 29.55 in 10.0 mi ENE 9.2 mph - N/A   Overcast
3:36 AM 23.0 °F 12.4 °F 19.4 °F 86% 29.55 in 10.0 mi ENE 10.4 mph - N/A   Overcast
3:56 AM 23.0 °F 13.9 °F 19.4 °F 86% 29.55 in 10.0 mi East 8.1 mph - N/A   Overcast
4:16 AM 23.0 °F 12.4 °F 19.4 °F 86% 29.55 in 10.0 mi East 10.4 mph - N/A   Overcast
4:36 AM 23.0 °F 13.1 °F 19.4 °F 86% 29.54 in 10.0 mi ENE 9.2 mph - N/A   Overcast
4:56 AM 21.2 °F 10.9 °F 19.4 °F 93% 29.54 in 10.0 mi ENE 9.2 mph - N/A   Overcast
5:16 AM 23.0 °F 13.1 °F 19.4 °F 86% 29.54 in 10.0 mi NE 9.2 mph - N/A   Overcast
5:36 AM 23.0 °F 13.9 °F 19.4 °F 86% 29.54 in 10.0 mi ENE 8.1 mph - N/A   Overcast
5:56 AM 23.0 °F 12.4 °F 19.4 °F 86% 29.54 in 10.0 mi ENE 10.4 mph - N/A   Overcast
6:16 AM 21.2 °F 11.7 °F 19.4 °F 93% 29.54 in 10.0 mi ENE 8.1 mph - N/A   Overcast
6:36 AM 21.2 °F 11.7 °F 19.4 °F 93% 29.54 in 10.0 mi ENE 8.1 mph - N/A   Overcast
6:56 AM 21.2 °F 10.9 °F 19.4 °F 93% 29.54 in 10.0 mi NE 9.2 mph - N/A   Overcast
7:16 AM 21.2 °F 10.1 °F 19.4 °F 93% 29.54 in 10.0 mi ENE 10.4 mph - N/A   Overcast
7:36 AM 21.2 °F 10.1 °F 19.4 °F 93% 29.54 in 10.0 mi NE 10.4 mph - N/A   Overcast
7:56 AM 21.2 °F 10.1 °F 19.4 °F 93% 29.54 in 10.0 mi NE 10.4 mph - N/A   Overcast
8:16 AM 21.2 °F 9.5 °F 19.4 °F 93% 29.54 in 10.0 mi NE 11.5 mph - N/A   Overcast
8:36 AM 21.2 °F 10.9 °F 19.4 °F 93% 29.54 in 9.0 mi NE 9.2 mph - N/A   Overcast
8:56 AM 21.2 °F 11.7 °F 19.4 °F 93% 29.55 in 10.0 mi ENE 8.1 mph - N/A   Overcast
9:16 AM 21.2 °F 10.9 °F 19.4 °F 93% 29.55 in 10.0 mi East 9.2 mph - N/A   Overcast
9:36 AM 21.2 °F 12.6 °F 19.4 °F 93% 29.55 in 10.0 mi ENE 6.9 mph - N/A   Overcast
9:56 AM 21.2 °F 11.7 °F 19.4 °F 93% 29.55 in 10.0 mi East 8.1 mph - N/A   Overcast
10:16 AM 21.2 °F 13.6 °F 19.4 °F 93% 29.55 in 10.0 mi ENE 5.8 mph - N/A   Overcast
10:36 AM 21.2 °F 12.6 °F 19.4 °F 93% 29.55 in 9.0 mi NE 6.9 mph - N/A   Overcast
10:56 AM 23.0 °F 14.7 °F 19.4 °F 86% 29.55 in 10.0 mi ENE 6.9 mph - N/A   Overcast
11:16 AM 23.0 °F 13.9 °F 19.4 °F 86% 29.56 in 10.0 mi East 8.1 mph - N/A   Overcast
11:36 AM 23.0 °F 12.4 °F 19.4 °F 86% 29.56 in 10.0 mi East 10.4 mph - N/A   Overcast
11:56 AM 23.0 °F 13.1 °F 19.4 °F 86% 29.56 in 10.0 mi East 9.2 mph - N/A   Overcast
12:16 PM 24.8 °F 14.0 °F 19.4 °F 80% 29.56 in 10.0 mi East 11.5 mph - N/A   Overcast
12:36 PM 24.8 °F 14.0 °F 19.4 °F 80% 29.57 in 10.0 mi East 11.5 mph - N/A   Overcast
12:56 PM 24.8 °F 13.4 °F 19.4 °F 80% 29.57 in 10.0 mi East 12.7 mph - N/A   Overcast
1:16 PM 24.8 °F 14.6 °F 19.4 °F 80% 29.57 in 10.0 mi East 10.4 mph - N/A   Overcast
1:36 PM 24.8 °F 14.0 °F 19.4 °F 80% 29.57 in 10.0 mi East 11.5 mph - N/A   Overcast
1:56 PM 24.8 °F 14.6 °F 21.2 °F 86% 29.58 in 10.0 mi East 10.4 mph - N/A   Overcast
2:16 PM 24.8 °F 15.3 °F 19.4 °F 80% 29.58 in 10.0 mi East 9.2 mph - N/A   Overcast
2:36 PM 24.8 °F 14.6 °F 19.4 °F 80% 29.58 in 10.0 mi East 10.4 mph - N/A   Overcast
2:56 PM 24.8 °F 15.3 °F 21.2 °F 86% 29.59 in 10.0 mi ENE 9.2 mph - N/A   Overcast
3:16 PM 24.8 °F 15.3 °F 21.2 °F 86% 29.59 in 10.0 mi ENE 9.2 mph - N/A   Overcast
3:36 PM 24.8 °F 15.3 °F 21.2 °F 86% 29.59 in 10.0 mi ENE 9.2 mph - N/A   Overcast
3:56 PM 24.8 °F 15.3 °F 21.2 °F 86% 29.59 in 10.0 mi ENE 9.2 mph - N/A   Overcast
4:16 PM 24.8 °F 14.6 °F 21.2 °F 86% 29.60 in 10.0 mi East 10.4 mph - N/A   Overcast
4:36 PM 24.8 °F 14.0 °F 21.2 °F 86% 29.60 in 10.0 mi ENE 11.5 mph - N/A   Overcast
4:56 PM 24.8 °F 14.6 °F 21.2 °F 86% 29.60 in 9.0 mi ENE 10.4 mph - N/A   Overcast
5:16 PM 24.8 °F 14.6 °F 21.2 °F 86% 29.60 in 10.0 mi East 10.4 mph - N/A   Overcast
5:36 PM 24.8 °F 15.3 °F 21.2 °F 86% 29.60 in 10.0 mi ENE 9.2 mph - N/A   Overcast
5:56 PM 24.8 °F 15.3 °F 21.2 °F 86% 29.60 in 10.0 mi East 9.2 mph - N/A   Overcast
6:16 PM 24.8 °F 14.0 °F 21.2 °F 86% 29.60 in 10.0 mi ENE 11.5 mph - N/A   Overcast
6:36 PM 24.8 °F 14.6 °F 21.2 °F 86% 29.60 in 10.0 mi ENE 10.4 mph - N/A   Overcast
6:56 PM 24.8 °F 14.6 °F 21.2 °F 86% 29.61 in 10.0 mi ENE 10.4 mph - N/A   Overcast
7:16 PM 24.8 °F 14.6 °F 21.2 °F 86% 29.61 in 10.0 mi ENE 10.4 mph - N/A   Overcast
7:36 PM 24.8 °F 15.3 °F 21.2 °F 86% 29.61 in 10.0 mi NE 9.2 mph - N/A   Overcast
7:56 PM 24.8 °F 14.6 °F 21.2 °F 86% 29.61 in 10.0 mi NE 10.4 mph - N/A   Overcast
8:16 PM 24.8 °F 15.3 °F 19.4 °F 80% 29.62 in 10.0 mi ENE 9.2 mph - N/A   Overcast
8:36 PM 24.8 °F 14.6 °F 21.2 °F 86% 29.62 in 10.0 mi ENE 10.4 mph - N/A   Overcast
8:56 PM 24.8 °F 15.3 °F 21.2 °F 86% 29.62 in 10.0 mi ENE 9.2 mph - N/A   Overcast
9:16 PM 24.8 °F 15.3 °F 21.2 °F 86% 29.63 in 10.0 mi ENE 9.2 mph - N/A   Overcast
9:36 PM 24.8 °F 15.3 °F 21.2 °F 86% 29.63 in 10.0 mi ENE 9.2 mph - N/A   Overcast
9:56 PM 24.8 °F 14.6 °F 21.2 °F 86% 29.64 in 10.0 mi East 10.4 mph - N/A   Overcast
10:16 PM 24.8 °F 15.3 °F 19.4 °F 80% 29.64 in 10.0 mi ENE 9.2 mph - N/A   Overcast
10:36 PM 24.8 °F 14.0 °F 19.4 °F 80% 29.64 in 10.0 mi ENE 11.5 mph - N/A   Overcast
10:56 PM 24.8 °F 14.0 °F 21.2 °F 86% 29.65 in 10.0 mi NE 11.5 mph - N/A   Overcast
11:16 PM 24.8 °F 14.6 °F 19.4 °F 80% 29.65 in 10.0 mi ENE 10.4 mph - N/A   Overcast
11:36 PM 24.8 °F 15.3 °F 19.4 °F 80% 29.65 in 10.0 mi ENE 9.2 mph - N/A   Overcast
11:56 PM 24.8 °F 16.1 °F 21.2 °F 86% 29.65 in 2.5 mi East 8.1 mph - N/A   Overcast